KF0FSA Weather Reports


time (UTC)temp
C
wind
direction
speed
KPH
gust
KPH
rain 1hr
cm
rain 24hr
cm
rain mn
cm
humidity
%
barometer
mb
20260502130250 6 205 3.2 6.4 0.00 0.00 0.00 54 965.4
20260502123748 5 140 1.6 8.0 0.00 0.00 0.00 57 965.4
20260502123248 5 192 3.2 6.4 0.00 0.00 0.00 58 965.5
20260502122952 4 277 1.6 6.4 0.00 0.00 0.00 58 965.6
20260502122249 4 204 1.6 6.4 0.00 0.00 0.00 60 965.7
20260502121248 3 153 1.6 6.4 0.00 0.00 0.00 62 965.7
20260502120749 3 181 1.6 6.4 0.00 0.00 0.00 62 965.8
20260502120249 3 308 1.6 6.4 0.00 0.00 0.00 62 965.7
20260502115746 3 130 1.6 6.4 0.00 0.00 0.00 63 965.7
20260502115243 2 236 1.6 4.8 0.00 0.00 0.00 66 965.8
20260502114947 2 203 1.6 4.8 0.00 0.00 0.00 66 965.7
20260502113949 1 0 0.0 3.2 0.00 0.00 0.00 68 965.7
20260502112944 1 224 0.0 3.2 0.00 0.00 0.00 71 965.8
20260502112444 1 0 0.0 1.6 0.00 0.00 0.00 71 965.9
20260502104944 0 0 0.0 1.6 0.00 0.00 0.00 74 966.0
20260502103446 0 0 0.0 1.6 0.00 0.00 0.00 78 966.2
20260502063850 1 0 0.0 1.6 0.00 0.00 0.00 76 966.8
20260502051348 2 0 0.0 0.0 0.00 0.00 0.00 76 966.8
20260502040354 4 0 0.0 3.2 0.00 0.00 0.00 60 966.7
20260502022339 7 0 0.0 1.6 0.00 0.00 0.00 50 966.2
20260502021336 7 0 0.0 1.6 0.00 0.00 0.00 49 966.2
20260502014833 9 322 1.6 4.8 0.00 0.00 0.00 43 965.8
20260502014333 9 37 1.6 4.8 0.00 0.00 0.00 43 965.7
20260502013330 9 107 1.6 6.4 0.00 0.00 0.00 41 965.7
20260502005328 11 28 3.2 9.7 0.00 0.00 0.00 37 965.3
20260502002325 11 20 4.8 12.9 0.00 0.00 0.00 36 965.2
20260502001824 11 20 6.4 12.9 0.00 0.00 0.00 36 965.1
20260501234824 12 321 4.8 11.3 0.00 0.00 0.00 34 965.1
20260501233820 12 24 6.4 14.5 0.00 0.00 0.00 34 965.1
20260501232317 12 353 6.4 16.1 0.00 0.00 0.00 34 965.0
20260501230318 12 36 8.0 14.5 0.00 0.00 0.00 34 964.8
20260501224317 12 346 8.0 14.5 0.00 0.00 0.00 33 965.1
20260501223318 12 40 8.0 17.7 0.00 0.00 0.00 34 964.9
20260501213813 12 17 8.0 16.1 0.00 0.00 0.00 34 964.8
20260501212813 12 35 9.7 20.9 0.00 0.00 0.00 35 965.0
20260501210321 12 352 6.4 16.1 0.00 0.00 0.00 36 964.8
20260501202306 12 28 8.0 19.3 0.00 0.00 0.00 35 965.2
20260501195805 12 332 6.4 14.5 0.00 0.00 0.00 37 965.2
20260501190803 11 281 9.7 22.5 0.00 0.00 0.00 36 965.5
20260501190111 11 31 8.0 16.1 0.00 0.00 0.00 37 965.5
20260501184803 11 334 9.7 19.3 0.00 0.00 0.00 41 965.4
20260501171749 9 23 9.7 20.9 0.00 0.00 0.00 45 965.7
20260501165244 8 29 8.0 16.1 0.00 0.00 0.00 45 965.6
20260501163237 8 23 9.7 22.5 0.00 0.00 0.00 45 965.6
20260501162738 8 34 11.3 22.5 0.00 0.00 0.00 48 965.6
20260501144725 6 47 6.4 14.5 0.00 0.00 0.00 55 965.8
20260501144223 6 14 6.4 14.5 0.00 0.00 0.00 54 965.6
20260501143019 6 349 6.4 14.5 0.00 0.00 0.00 56 965.9
20260501140718 5 55 6.4 14.5 0.00 0.00 0.00 61 965.8